Weather History for Alliance, NE

Change the Weather History Date:

Friday, August 2, 2013

  Actual Average Record
Temperature  
Mean Temperature 69 °F 73 °F  
Max Temperature 81 °F 89 °F 106 °F (2008)
Min Temperature 56 °F 57 °F 45 °F (1978)
Degree Days  
Heating Degree Days 0 0  
Month to date heating degree days 0 0  
Since 1 June heating degree days 70 105  
Since 1 July heating degree days 8 12  
Cooling Degree Days 4 8  
Month to date cooling degree days 13 16  
Year to date cooling degree days 409 348  
Since 1 June cooling degree days 387 338  
Growing Degree Days 18 (Base 50)    
Moisture  
Dew Point 60 °F    
Average Humidity 77    
Maximum Humidity 100    
Minimum Humidity 54    
Precipitation  
Precipitation 0.00 in 0.06 in 1.05 in (1912)
Month to date precipitation 1.14 0.12  
Year to date precipitation 7.86 10.83  
Sea Level Pressure  
Sea Level Pressure 29.88 in    
Wind  
Wind Speed 9 mph (East)    
Max Wind Speed 20 mph    
Max Gust Speed 31 mph    
Visibility 10 miles    
Events      
T = Trace of Precipitation, MM = Missing Value Source: NWS Daily Summary

Daily Weather History Graph

Daily Weather History Graph

Search for Another Location

Airport:

Trip Planner

Search our weather history database for the weather conditions in past years. The results will help you decide how hot, cold, wet, or windy it might be!

Date:

Astronomy

Aug. 02, 2013 Rise Set
Actual Time 5:45 AM MDT 8:08 PM MDT
Civil Twilight 5:14 AM MDT 8:39 PM MDT
Nautical Twilight 4:35 AM MDT 9:18 PM MDT
Astronomical Twilight 3:51 AM MDT 10:01 PM MDT
Moon 2:07 AM MDT (8/2) 5:08 PM MDT (8/2)
Length of Visible Light 15h 25m
Length of Day
14h 22m
Waning Crescent, 15% of the Moon is Illuminated
Aug 2
Waning Crescent
Aug 6
New
Aug 14
First Quarter
Aug 20
Full
Aug 28
Last Quarter

Hourly Weather History & Observations

Time (MDT) Temp. Heat Index Dew Point Humidity Pressure Visibility Wind Dir Wind Speed Gust Speed Precip Events Conditions
12:53 AM 60.1 °F - 55.9 °F 86% 29.83 in 10.0 mi ENE 5.8 mph - N/A   Clear
1:53 AM 61.0 °F - 57.0 °F 87% 29.83 in 10.0 mi NNW 3.5 mph - N/A   Clear
2:53 AM 60.1 °F - 57.9 °F 93% 29.81 in 10.0 mi Calm Calm - N/A   Clear
3:53 AM 57.0 °F - 55.9 °F 96% 29.84 in 10.0 mi SW 4.6 mph - N/A   Clear
4:53 AM 55.9 °F - 55.0 °F 97% 29.83 in 10.0 mi East 5.8 mph - N/A   Clear
5:53 AM 57.0 °F - 55.0 °F 93% 29.82 in 10.0 mi South 4.6 mph - N/A   Clear
6:53 AM 61.0 °F - 57.9 °F 90% 29.85 in 10.0 mi SSE 5.8 mph - N/A   Clear
7:53 AM 66.9 °F - 60.1 °F 79% 29.87 in 10.0 mi SSE 8.1 mph - N/A   Clear
8:53 AM 70.0 °F - 62.1 °F 76% 29.86 in 10.0 mi South 8.1 mph - N/A   Clear
9:53 AM 73.0 °F - 61.0 °F 66% 29.86 in 10.0 mi Calm Calm - N/A   Partly Cloudy
10:53 AM 75.0 °F - 60.1 °F 60% 29.89 in 10.0 mi NW 10.4 mph - N/A   Clear
11:53 AM 79.0 °F - 60.1 °F 52% 29.88 in 10.0 mi North 10.4 mph 23.0 mph N/A   Clear
12:53 PM 79.0 °F - 62.1 °F 56% 29.90 in 10.0 mi NNE 17.3 mph 25.3 mph N/A   Partly Cloudy
1:53 PM 79.0 °F - 62.1 °F 56% 29.90 in 10.0 mi NE 15.0 mph - N/A   Mostly Cloudy
2:53 PM 78.1 °F - 63.0 °F 60% 29.91 in 10.0 mi NE 17.3 mph 23.0 mph N/A   Scattered Clouds
3:53 PM 78.1 °F - 63.0 °F 60% 29.90 in 10.0 mi ENE 16.1 mph - N/A   Clear
4:53 PM 80.1 °F 81.2 °F 62.1 °F 54% 29.89 in 10.0 mi ESE 15.0 mph 20.7 mph N/A   Clear
5:53 PM 80.1 °F 81.2 °F 62.1 °F 54% 29.87 in 10.0 mi ESE 11.5 mph - N/A   Clear
6:53 PM 79.0 °F - 61.0 °F 54% 29.89 in 10.0 mi ESE 10.4 mph - N/A   Clear
7:53 PM 73.9 °F - 62.1 °F 66% 29.91 in 10.0 mi ESE 6.9 mph - N/A   Clear
8:53 PM 70.0 °F - 64.0 °F 81% 29.93 in 10.0 mi East 8.1 mph - N/A   Clear
9:53 PM 68.0 °F - 64.0 °F 87% 29.96 in 10.0 mi East 11.5 mph - N/A   Clear
10:53 PM 66.0 °F - 63.0 °F 90% 29.96 in 10.0 mi East 9.2 mph - N/A   Clear
11:53 PM 64.9 °F - 63.0 °F 93% 29.97 in 10.0 mi ESE 9.2 mph - N/A   Clear